Regional Weather Roundup
Issued by NWS Charleston, SC

Current Version | Previous Version | Text Only | Print | Product List | Glossary Off
Versions: 1 2 3 4 5 6 7 8 9 10 11 12 13 14 15 16 17 18 19 20 21 22 23 24 25 26 27 28 29 30 31 32 33 34 35 36 37 38 39 40 41 42 43 44 45 46 47 48 49 50

475
ASUS42 KCHS 011612
RWRCHS

REGIONAL WEATHER ROUNDUP
NATIONAL WEATHER SERVICE CHARLESTON SC
1100 AM EST WED MAR 01 2017

NOTE: "FAIR" INDICATES FEW OR NO CLOUDS BELOW 12,000 FEET WITH NO
SIGNIFICANT WEATHER AND/OR OBSTRUCTIONS TO VISIBILITY.

NOT ALL STATIONS ARE QUALITY CONTROLLED. USE DATA WITH CAUTION...
ESPECIALLY DEWPOINT OBSERVATIONS.

SCZ027-030-031-034>040-042>050-011700-
...SOUTHEAST SOUTH CAROLINA...

CITY           SKY/WX    TMP DP  RH WIND       PRES   REMARKS
N CHARLESTON   PTSUNNY   77  64  64 S20       30.09F
WATERFRONT PRK   N/A     68  67  97 SW10      30.09F
MOUNT PLEASANT FAIR      73  68  83 SW13      30.11S
JOHNS ISLAND   CLOUDY    70  68  94 SW12G21   30.12R
PINOPOLIS        N/A     73  66  78 SW9       30.00F
MONCKS CORNER  FAIR      79  63  57 SW13G20   30.07F
SUMMERVILLE    FAIR      79  64  61 SW7G18    30.08F
BEAUFORT MCAS  MOSUNNY   78  68  71 SW17G23   30.10F
BEAUFORT ARPT  FAIR      73  68  83 S9        30.11S HAZE
HILTON HEAD IS SUNNY     72  68  88 S12       30.12
WALTERBORO     MOSUNNY   77  63  61 SW13G23   30.09F
ALLENDALE      FAIR      77  64  65 VRB7G13   30.07S

...SOUTHERN MIDLANDS AND PEE DEE...

CITY           SKY/WX    TMP DP  RH WIND       PRES   REMARKS
GEORGETOWN     FAIR      75  64  69 S13G18    30.09F
KINGSTREE      FAIR      77  63  61 SW14G20   30.06S
ORANGEBURG     CLOUDY    74  64  71 W14       30.08R
BARNWELL       PTSUNNY   75  66  73 SW10      30.08S
AIKEN          PTSUNNY   70  59  68 SW14G20   30.10F
MANNING        FAIR      73  61  64 MISG      30.07F
COLUMBIA       MOSUNNY   75  60  59 SW17G28   30.04F
SUMTER         PTSUNNY   75  63  65 SW18G30   30.02F
FLORENCE       PTSUNNY   76  65  68 SW21G28   30.03F
MYRTLE BEACH   MOSUNNY   73  64  73 S16       30.07F
N MYRTLE BEACH PTSUNNY   70  65  84 SW17G25   30.07F

$$

GAZ063-065-086>088-099>101-113>116-118-119-134>141-150-011700-
...SOUTHEAST GEORGIA...

CITY           SKY/WX    TMP DP  RH WIND       PRES   REMARKS
SAVANNAH ARPT  PTSUNNY   79  64  60 SW14G25   30.11F
HUNTER AAF     MOSUNNY   79  71  77 S13       30.09F
FORT STEWART   MOSUNNY   78  65  64 SW12      30.10F
STATESBORO     MOSUNNY   74  67  76 SW12      30.10F
SYLVANIA       SUNNY    N/A N/A N/A SW8G17    30.10F
CLAXTON        FAIR     N/A N/A N/A SW9       30.12S

...CSRA...CENTRAL AND FAR SOUTHEAST GEORGIA...

CITY           SKY/WX    TMP DP  RH WIND       PRES   REMARKS
THOMSON        CLOUDY    70  65  83 W9G17     30.11F
AUGUSTA-BUSH   CLOUDY    73  62  68 SW12G21   30.07F
AUGUSTA-DANIEL CLOUDY    73  60  63 SW9       30.07F
SWAINSBORO     PTSUNNY   73  63  68 SW15G21   30.11S
VIDALIA        CLOUDY    73  68  83 SW12      30.12F
EASTMAN        PTSUNNY   74  56  52 SW10G23   30.13S
HAZLEHURST     CLOUDY    74  68  81 SW10G16   30.12F
ALMA           CLOUDY    69  66  90 SW7       30.14S
WAYCROSS       CLOUDY    73  73 100 SW9       30.15S
JESUP          FAIR      79  63  57 W7        30.13F
BAXLEY         CLOUDY    73  70  88 SW10G16   30.14R
BRUNSWICK      MOSUNNY   79  68  69 SW12G18   30.14F
SAINT SIMONS   MOSUNNY   78  65  63 S8        30.13S

$$

SCZ027-028-034-036>038-045-046-048>050-GAZ119-141-011700-
...LAKE AND SUPPLEMENTAL COASTAL OBSERVATIONS...

STATION/POSITION TIME  TEMP    WIND        PRES    WAVE   SWELL
                       AIR SEA DIR/SP/G            HT/PER HT/PER/DIR
                 (UTC) (F)     (DEG/KT/KT) (MB)    (FT/S) (FT/S/D)
WINYAH BAY       NOT AVBL
LAKE MURRAY      1520   67     250/ 15/ 24 1016.9F
ACE BASIN NERRS  NOT AVBL
FORT PULASKI     1548   71 64  210/  7/ 11 1020.1F
SAPELO ISLAND    1500   74     210/ 10     1020.0

$$

ANZ835-935-AMZ111-154-330-350-352-354-370-450-454-472-011700-
...C-MAN AND BUOY OBSERVATIONS...

STATION/POSITION TIME  TEMP    WIND        PRES    WAVE   SWELL
                       AIR SEA DIR/SP/G            HT/PER HT/PER/DIR
                 (UTC) (F)     (DEG/KT/KT) (MB)    (FT/S) (FT/S/D)
BUOY 41004       1450   71 69  220/ 17/ 19 1019.3    4/ 7   2/140/ 7
BUOY 41008       1450   66 63  190/ 12/ 16 1020.0    3/ 6   2/ 90/ 8
FOLLY BEACH CMAN 1500   65     210/ 13/ 15 1020.3F
CAPERS NEARSHORE 1508   64 62  230/ 14/ 17 1019.5F
FRIPP NEARSHORE  1508   65 62  220/ 12/ 14 1019.7F


STATION/POSITION TIME  TEMP    WIND        PRES    WAVE   SWELL
                       AIR SEA DIR/SP/G            HT/PER HT/PER/DIR
                 (UTC) (F)     (DEG/KT/KT) (MB)    (FT/S) (FT/S/D)
5E ST. MARYS GA  1530      66                N/A     3/ 6
FRYING PAN BUOY  1550   72 70  190/ 17/ 21 1019.4F   5/ 6
BUOY 41025       1450   72 74  210/ 23/ 29 1017.9    9/ 7   2/340/15
CAPE LOOKOUT NC  1500   70     200/ 16/ 21 1018.2F
BUOY 41002       1550   71 71  160/ 14/ 16 1022.8F   4/ 7   2/ 60/ 8
BUOY 41010       NOT AVBL
ST AUGUSTINE FL  1600   77 69  200/ 12/ 14 1021.9F


$$




USA.gov is the U.S. government's official web portal to all federal, state and local government web resources and services.